Temp_Advection
nan nan nan nan nan nan nan nan nan nan nan nan nan nan nan nan nan nan nan nan nan nan nan nan nan nan nan nan nan nan nan nan nan nan nan nan nan nan nan nan nan nan nan
nan 1 2 2 2 1 0 1 0 0 0 0 0 -0 0 0 -0 0 0 0 0 0 0 0 0 0 0 0 0 0 0 0 0 -0 -0 -0 -0 0 -0 -0 -0 0 nan
nan 2 1 1 0 0 1 0 0 0 0 0 -0 0 0 0 0 0 0 0 0 0 0 0 0 0 0 0 0 0 0 0 0 0 -0 -0 -0 -0 -0 -0 0 -0 nan
nan 0 0 -0 0 1 1 0 0 0 -0 0 0 0 0 0 0 0 0 0 0 0 0 1 0 -0 -0 0 0 0 0 0 0 0 -0 -0 -0 -0 -0 -1 -1 -0 nan
nan 0 1 1 1 1 1 0 0 -0 0 0 0 0 0 0 0 0 0 0 0 0 0 0 0 0 0 0 0 0 0 0 0 0 -0 -0 -0 0 -0 -0 -1 -1 nan
nan 1 1 1 1 1 0 -0 -0 0 0 -0 0 0 0 0 0 0 0 0 0 -0 0 0 0 0 0 0 0 0 0 0 0 0 -0 -0 -0 0 0 0 0 -0 nan
nan 1 1 1 0 0 -0 -0 0 0 0 0 0 0 0 0 0 0 0 0 0 -0 0 0 0 0 0 0 0 0 0 0 0 0 -0 0 0 0 0 -0 -0 -0 nan
nan 1 1 0 -0 -0 0 0 -0 0 0 0 0 0 0 0 0 0 0 0 0 1 0 0 0 0 0 0 0 0 0 0 0 -0 -0 0 0 0 0 0 -0 -0 nan
nan 0 0 -0 -0 -0 -0 -0 0 0 0 0 -0 0 0 1 1 0 0 0 0 1 0 -0 0 0 0 0 1 0 -0 0 -0 -0 0 0 0 0 0 0 0 -0 nan
nan 0 0 0 -0 -0 0 0 0 0 0 0 0 0 -0 0 1 1 0 -0 -0 1 1 0 0 0 0 0 0 0 0 -0 0 0 0 0 0 0 0 0 0 0 nan
nan 0 0 -0 0 -0 -0 0 0 0 0 0 0 0 0 0 1 1 1 0 0 0 0 0 0 0 0 0 0 0 0 0 0 0 0 0 0 0 0 0 0 0 nan
nan -0 -0 0 -0 -0 -0 0 0 0 -0 0 -0 0 0 1 0 1 1 0 0 0 0 0 0 0 0 0 0 0 0 0 0 0 0 0 0 0 0 -0 0 0 nan
nan 0 -0 -0 -0 -0 -0 -0 -0 -0 -0 0 0 -0 0 1 1 1 1 1 0 -0 0 0 0 0 0 0 0 0 0 0 0 0 0 0 0 0 0 -0 -0 0 nan
nan 0 0 -0 -0 -0 -0 -0 -0 -0 -0 -0 0 -0 -0 0 1 1 1 1 0 -0 -0 0 0 0 -0 0 0 0 1 0 0 0 0 0 0 0 0 -0 -0 -0 nan
nan 0 0 0 0 0 0 0 0 0 0 -0 -0 -0 -0 -0 0 1 1 0 1 1 0 0 0 0 0 0 0 0 1 0 0 0 0 0 0 0 0 0 -0 -0 nan
nan -0 -0 -0 -0 -0 -1 -1 -0 0 -0 -0 -1 -1 -1 -1 -0 1 1 0 0 1 1 0 0 0 1 0 0 0 0 0 0 0 0 0 0 0 0 0 0 0 nan
nan -0 -0 -0 -0 -0 -0 -1 -4 -2 -0 -1 -1 -1 -1 -1 -0 -0 1 0 0 0 0 0 0 0 0 1 1 1 0 0 0 0 0 0 0 0 0 0 0 0 nan
nan -0 -0 -1 -1 -1 -0 0 -0 -2 -2 -2 -1 0 -1 -1 -0 0 0 0 -0 -0 0 0 0 0 0 0 1 1 0 0 0 0 0 0 0 0 0 0 0 0 nan
nan -1 -1 -1 -1 -1 -1 -1 -0 -0 -1 -1 -2 -1 -0 -0 -0 0 0 0 -0 -0 -0 0 -0 -0 0 0 1 1 0 0 0 0 0 0 0 0 0 -0 0 0 nan
nan -1 -1 -1 -1 -1 -1 -1 -1 -1 -1 -1 -1 -1 -1 -0 -0 -0 0 0 0 -0 -0 -0 -0 -0 -0 0 0 1 1 0 0 0 0 0 0 0 0 -0 -0 0 nan
nan -1 -1 -0 -0 -1 -1 -1 -1 -1 -1 -1 -1 -1 -1 -1 -0 -1 -0 -0 -0 -0 -0 -0 -0 -0 -0 -0 0 0 0 0 0 0 0 0 0 1 0 -0 -0 0 nan
nan -1 -0 -0 -0 -0 -0 -1 -1 -1 -1 -1 -1 -1 -1 -1 -1 -1 -1 -1 -0 -0 -0 -0 -0 -0 -0 -0 -0 -0 0 0 0 0 0 0 0 0 0 0 -0 0 nan
nan -0 -0 -0 -0 -0 -0 -0 -0 -0 -1 -1 -1 -1 -1 -1 -1 -1 -1 -1 -1 -1 -1 -1 -1 -0 -0 -0 -0 -0 -0 0 0 0 0 0 0 0 0 0 -0 0 nan
nan -0 -0 -0 -0 -0 -0 -0 -0 -0 -0 -0 -1 -1 -1 -1 -1 -1 -1 -1 -1 -1 -1 -1 -1 -1 -1 -0 -0 -0 -0 -0 0 0 0 0 0 0 0 0 0 0 nan
nan -0 -0 -0 -0 -0 -0 -0 -0 -0 -0 -0 -1 -1 -1 -1 -1 -1 -1 -1 -1 -1 -1 -1 -1 -1 -1 -1 -0 -0 -0 -0 0 0 0 0 0 0 0 0 0 0 nan
nan nan nan nan nan nan nan nan nan nan nan nan nan nan nan nan nan nan nan nan nan nan nan nan nan nan nan nan nan nan nan nan nan nan nan nan nan nan nan nan nan nan nan
Wind_Speed
26 23 22 24 26 26 24 17 15 16 10 13 15 17 20 23 25 25 25 22 22 24 26 31 30 19 15 15 16 19 20 20 22 24 25 29 31 29 29 29 29 29 29
30 27 28 30 28 24 13 20 10 8 11 14 16 19 21 22 24 25 23 22 23 24 28 30 22 19 17 17 18 19 20 20 20 26 31 31 29 28 30 29 27 24 22
32 29 26 22 19 17 13 11 10 11 13 14 18 21 24 24 23 23 23 22 22 26 29 24 22 22 21 20 20 22 21 20 22 28 30 29 30 30 31 28 24 22 20
28 27 24 18 19 19 15 12 10 11 12 18 20 23 22 23 22 22 22 22 24 28 26 23 23 25 26 24 19 20 22 23 24 26 27 30 30 30 28 26 26 25 28
30 24 24 21 17 15 13 11 8 10 19 23 23 22 22 22 22 21 22 25 26 27 24 25 26 24 26 22 20 21 22 23 24 25 27 29 30 29 25 25 28 28 24
24 23 19 18 17 14 8 7 15 24 20 19 22 22 22 23 23 24 25 25 25 25 28 27 25 19 17 17 19 21 23 22 23 25 26 28 28 25 25 25 24 25 28
19 18 19 15 10 7 10 17 19 17 19 19 20 21 23 24 23 21 20 23 26 28 30 24 19 17 16 17 21 23 23 22 23 25 27 26 25 23 22 25 24 22 25
21 19 14 7 5 13 18 18 17 18 19 20 21 23 26 26 25 24 23 26 29 30 25 20 19 17 18 20 23 24 22 21 22 24 25 22 21 19 21 21 23 26 29
17 12 5 6 19 22 16 18 19 20 20 21 23 26 27 28 27 26 25 28 30 26 20 21 19 21 19 20 21 20 21 21 22 22 19 18 17 17 16 21 23 25 29
10 5 10 20 21 17 19 20 19 19 21 23 25 26 28 28 26 26 27 30 28 25 21 23 23 22 21 19 20 20 22 20 20 17 16 15 15 16 16 19 20 23 25
8 17 21 13 17 18 19 19 20 21 24 26 29 29 29 29 28 29 30 29 27 25 24 20 20 21 22 21 20 21 20 18 18 17 17 17 15 15 18 20 18 20 23
19 12 14 16 17 18 19 20 22 24 27 29 32 34 32 30 28 26 26 27 28 27 26 23 20 20 22 22 21 19 16 17 19 18 19 18 17 17 19 22 21 19 17
10 11 13 16 17 19 22 25 27 28 31 33 33 35 36 32 27 26 24 21 25 27 29 27 25 24 23 25 23 21 18 18 20 20 19 18 17 18 20 23 21 17 16
11 14 16 20 23 25 28 31 34 36 38 39 38 39 39 37 33 27 23 20 19 21 24 28 27 25 24 27 25 25 21 21 21 21 19 17 17 18 21 23 22 19 19
16 19 22 25 27 31 33 34 36 40 39 38 41 43 43 43 38 30 25 23 21 21 22 24 26 26 24 26 27 27 24 23 23 21 19 17 17 18 22 20 19 17 17
21 24 27 30 32 34 37 42 40 40 41 39 39 37 38 41 40 35 30 24 23 21 24 25 27 28 26 23 24 27 24 21 21 18 17 16 16 18 20 17 16 15 17
22 25 28 31 34 36 37 37 41 43 35 38 37 36 35 36 34 42 24 21 24 24 26 27 29 29 27 26 23 22 22 19 17 17 16 14 15 17 18 15 15 15 15
26 28 29 30 32 33 33 33 32 37 40 43 39 32 33 29 21 19 18 20 23 24 27 27 30 29 28 27 25 21 20 18 18 19 17 15 15 17 15 15 14 15 14
26 27 28 29 29 28 28 29 31 34 35 35 33 29 21 14 14 15 16 19 20 22 23 25 26 27 29 25 23 20 19 19 18 19 19 17 15 16 15 14 13 13 13
24 25 25 26 26 23 22 24 26 28 28 29 29 24 18 15 16 16 16 17 18 20 20 22 21 23 25 24 22 20 19 19 20 19 17 15 15 16 14 13 11 12 11
23 22 22 22 21 21 23 27 28 31 30 27 22 19 16 11 8 9 11 12 15 17 15 15 16 16 18 23 21 19 19 19 19 19 17 15 15 15 12 12 9 10 10
20 21 21 22 22 22 23 22 23 24 24 24 23 22 23 19 17 15 15 14 13 11 12 15 16 13 14 15 16 19 19 20 20 21 19 16 16 14 12 10 9 8 7
19 20 21 21 21 21 21 21 22 22 23 22 22 23 23 21 20 19 18 18 19 19 19 19 17 16 15 12 14 14 17 21 19 18 19 18 17 14 12 10 9 7 6
21 22 23 22 21 21 21 22 22 22 24 24 24 23 22 23 23 22 21 19 18 17 17 17 19 20 19 18 15 13 16 13 15 18 18 19 18 15 13 11 9 7 6
22 21 22 22 22 22 22 22 22 23 23 23 23 24 23 23 23 22 22 21 20 20 18 16 16 17 19 21 20 19 18 17 15 17 19 18 18 14 13 11 10 9 6
20 21 21 21 21 22 22 23 23 23 24 24 23 23 23 23 24 24 24 23 22 21 20 18 17 17 17 16 21 21 20 19 13 15 19 18 17 15 13 11 11 10 8
Wind_Direction
209 210 217 214 213 217 216 223 265 294 282 285 291 298 307 310 309 312 317 313 314 315 317 320 321 309 302 299 287 288 291 293 298 302 305 310 311 311 309 308 306 300 293
211 219 218 212 211 210 236 270 280 287 271 276 290 303 301 303 307 310 312 312 306 306 316 319 313 302 294 289 287 286 292 293 292 300 306 309 310 314 315 316 313 304 297
203 199 195 202 209 245 257 255 278 267 267 290 295 290 301 304 306 308 310 303 297 308 317 311 306 295 285 285 285 287 290 289 296 301 306 310 314 319 318 318 316 310 305
204 209 216 234 262 263 243 257 252 263 281 289 291 300 300 301 299 302 302 293 302 311 312 305 299 293 284 277 280 283 287 291 297 301 305 310 315 320 319 322 318 318 315
212 222 233 249 237 224 231 244 260 279 287 291 296 298 301 300 303 300 295 298 302 307 309 303 299 290 281 268 274 284 285 293 297 301 306 311 316 318 321 321 315 317 317
216 226 233 212 211 211 227 263 288 285 286 295 299 302 305 307 307 299 296 297 300 304 307 303 294 283 279 276 277 281 288 291 297 302 307 311 312 314 316 317 321 322 322
216 202 199 196 206 232 286 304 281 285 300 304 304 305 307 308 307 301 296 297 302 305 304 293 281 279 278 277 281 284 286 290 295 301 306 309 308 314 315 316 317 315 310
192 190 190 206 295 312 306 279 294 306 307 306 306 306 305 306 306 305 304 299 302 304 301 278 273 276 279 283 283 281 282 286 293 297 301 302 305 310 313 311 309 305 302
181 182 200 297 316 300 282 296 303 303 304 304 306 306 304 302 300 298 293 297 305 302 295 275 274 280 284 287 281 276 279 286 292 298 296 301 303 307 310 309 306 306 309
186 240 287 301 289 286 293 295 299 301 302 305 307 306 304 308 297 289 288 295 296 295 288 275 271 279 283 287 284 280 282 290 295 295 295 296 295 302 306 318 310 301 305
284 301 295 286 291 295 297 300 302 301 302 304 306 309 311 314 304 290 287 285 284 289 282 274 272 280 279 281 284 284 285 289 296 295 297 298 302 305 312 320 314 301 298
293 289 288 295 299 302 302 303 303 303 303 307 310 307 307 308 307 301 291 281 279 276 277 277 280 284 276 279 277 285 279 292 294 294 296 300 307 312 317 322 317 310 297
295 301 306 310 312 313 309 308 307 307 305 304 308 306 303 302 302 304 304 295 278 275 275 273 274 280 273 272 277 269 275 286 287 281 288 296 305 313 319 322 317 310 300
302 307 309 310 310 309 307 305 302 299 300 300 297 302 302 298 296 303 298 285 281 281 283 281 282 277 274 272 274 263 272 280 279 272 284 292 299 311 319 321 317 317 312
303 303 303 301 299 297 295 295 293 291 292 292 294 293 295 293 289 291 291 283 281 281 285 283 278 277 275 274 266 261 271 279 273 267 277 286 293 304 315 318 313 313 315
302 302 303 304 303 303 302 301 299 298 297 295 291 287 290 290 287 274 276 276 278 282 280 280 280 279 277 282 270 270 273 272 270 259 269 282 289 300 311 313 309 311 316
311 312 312 312 312 313 312 312 312 309 309 307 307 299 301 296 304 278 268 271 276 274 269 275 277 281 281 280 281 271 270 270 261 249 263 278 283 297 308 308 305 313 314
316 318 320 321 322 321 321 320 314 309 314 314 318 309 304 302 300 278 270 273 279 278 269 273 277 279 282 283 282 277 266 262 251 250 258 270 281 292 301 304 302 313 314
326 328 330 331 332 332 332 329 328 325 320 317 319 320 320 309 303 299 294 285 285 285 285 283 288 287 283 281 278 273 266 253 251 252 260 266 273 285 294 296 301 309 314
333 334 334 337 340 343 344 347 347 350 342 330 327 324 313 302 300 299 294 292 290 289 288 293 292 291 283 280 277 272 261 251 246 250 254 258 263 279 286 288 298 305 314
334 335 337 336 333 333 328 333 335 338 339 342 348 346 349 351 350 332 319 305 298 297 297 301 309 312 303 290 278 268 260 251 244 247 251 252 256 272 276 281 291 298 308
336 337 339 339 336 332 331 331 331 335 337 338 339 336 332 331 325 320 311 307 305 307 303 297 295 301 308 311 298 278 263 255 248 245 246 244 247 260 265 270 278 289 301
332 333 333 332 331 330 330 330 330 333 334 335 335 334 334 332 329 326 321 315 306 301 295 296 299 294 291 292 307 297 287 264 253 242 238 236 238 249 254 257 263 272 279
327 326 325 325 325 327 326 326 327 327 328 330 330 329 327 325 323 322 321 319 316 315 309 302 295 285 285 278 277 281 287 278 266 238 231 227 231 238 240 245 251 252 254
322 320 320 321 324 324 324 323 325 326 327 329 329 329 327 326 323 321 320 319 318 318 316 310 305 299 281 280 269 267 264 270 266 233 224 222 224 230 232 235 239 239 241
323 323 321 322 323 323 324 324 326 326 327 328 328 327 327 326 325 325 323 323 321 319 314 312 306 304 300 287 275 263 266 257 252 222 215 216 218 223 223 226 228 233 234
Height
1520 1523 1526 1528 1529 1529 1528 1531 1532 1533 1535 1535 1535 1533 1531 1529 1527 1525 1523 1522 1520 1518 1516 1512 1510 1507 1505 1504 1502 1501 1500 1498 1495 1492 1491 1488 1485 1482 1479 1476 1472 1467 1464
1515 1516 1517 1519 1521 1521 1528 1528 1530 1528 1531 1531 1530 1529 1526 1523 1522 1520 1518 1517 1515 1513 1511 1507 1505 1503 1501 1500 1499 1498 1496 1494 1492 1488 1485 1482 1480 1476 1471 1467 1464 1460 1457
1511 1516 1517 1519 1519 1522 1522 1524 1526 1526 1527 1526 1525 1523 1520 1518 1517 1515 1513 1511 1509 1507 1504 1502 1500 1498 1497 1495 1495 1493 1492 1490 1487 1483 1479 1476 1472 1469 1464 1460 1457 1454 1452
1511 1513 1516 1518 1520 1520 1521 1522 1522 1523 1522 1521 1518 1517 1515 1513 1512 1510 1508 1506 1504 1501 1499 1496 1494 1493 1491 1490 1489 1489 1487 1485 1482 1479 1475 1471 1467 1463 1459 1454 1450 1449 1445
1507 1511 1513 1515 1516 1517 1518 1518 1519 1518 1517 1515 1513 1511 1509 1507 1505 1504 1502 1500 1498 1495 1493 1490 1488 1486 1484 1483 1483 1483 1482 1479 1477 1473 1469 1465 1461 1457 1454 1450 1447 1443 1439
1506 1508 1510 1511 1513 1515 1516 1517 1516 1513 1511 1510 1508 1505 1504 1502 1500 1498 1496 1494 1492 1489 1486 1484 1481 1479 1478 1478 1478 1477 1476 1473 1471 1467 1464 1460 1456 1453 1450 1447 1443 1439 1433
1504 1507 1509 1512 1513 1514 1513 1511 1510 1508 1506 1505 1503 1501 1499 1497 1495 1493 1491 1489 1486 1483 1480 1477 1476 1474 1473 1473 1472 1471 1469 1468 1465 1462 1458 1456 1451 1449 1445 1442 1439 1436 1433
1504 1506 1509 1512 1512 1511 1509 1507 1505 1503 1501 1500 1498 1497 1494 1492 1489 1487 1485 1482 1479 1476 1473 1472 1471 1470 1469 1468 1466 1464 1463 1462 1460 1457 1453 1450 1448 1445 1442 1439 1435 1431 1427
1504 1507 1508 1509 1508 1507 1505 1503 1501 1499 1497 1495 1493 1490 1488 1485 1483 1480 1478 1475 1471 1469 1467 1466 1465 1465 1463 1462 1460 1459 1457 1456 1454 1451 1448 1446 1444 1442 1439 1435 1432 1427 1421
1504 1506 1507 1505 1504 1503 1501 1498 1496 1494 1492 1490 1487 1485 1482 1478 1476 1473 1471 1468 1465 1463 1462 1461 1460 1459 1458 1456 1454 1453 1451 1450 1448 1446 1444 1442 1440 1438 1436 1433 1428 1424 1420
1504 1504 1503 1502 1500 1498 1496 1494 1492 1490 1487 1485 1481 1478 1475 1472 1468 1466 1463 1460 1458 1456 1455 1454 1454 1453 1451 1450 1448 1447 1445 1444 1443 1441 1439 1437 1436 1433 1431 1428 1425 1421 1417
1501 1501 1500 1498 1496 1494 1492 1490 1487 1485 1481 1478 1474 1470 1468 1465 1461 1458 1455 1453 1451 1449 1448 1448 1447 1446 1444 1444 1443 1441 1440 1439 1437 1436 1434 1433 1431 1429 1426 1422 1419 1416 1413
1499 1498 1496 1494 1492 1490 1488 1485 1482 1479 1475 1471 1467 1463 1459 1457 1455 1451 1447 1444 1443 1441 1440 1440 1439 1438 1437 1436 1436 1435 1435 1433 1432 1431 1429 1428 1426 1424 1421 1417 1414 1411 1408
1495 1493 1492 1490 1487 1485 1482 1479 1475 1471 1467 1463 1459 1455 1451 1448 1446 1444 1440 1437 1435 1434 1433 1432 1431 1430 1429 1429 1428 1428 1428 1427 1426 1425 1424 1423 1421 1419 1416 1412 1408 1406 1403
1491 1489 1487 1484 1481 1477 1474 1471 1467 1462 1459 1454 1449 1446 1442 1437 1436 1435 1432 1430 1427 1426 1425 1424 1423 1422 1421 1420 1420 1420 1421 1421 1419 1419 1418 1417 1416 1414 1412 1408 1405 1402 1399
1487 1484 1481 1477 1474 1470 1464 1458 1457 1452 1448 1444 1439 1436 1431 1426 1424 1422 1421 1420 1420 1418 1417 1416 1414 1414 1414 1413 1413 1413 1413 1413 1412 1413 1413 1412 1411 1410 1407 1405 1402 1399 1396
1481 1478 1475 1471 1466 1461 1456 1451 1443 1437 1436 1432 1428 1424 1420 1417 1411 1408 1410 1411 1411 1411 1409 1408 1407 1406 1406 1406 1405 1405 1405 1406 1406 1406 1407 1407 1406 1405 1403 1401 1399 1396 1393
1477 1473 1468 1464 1459 1455 1450 1445 1441 1435 1426 1419 1416 1413 1409 1406 1403 1403 1404 1403 1402 1402 1400 1400 1399 1398 1398 1397 1398 1397 1398 1399 1400 1401 1401 1401 1401 1400 1399 1397 1395 1392 1390
1470 1466 1462 1458 1454 1449 1445 1440 1434 1429 1423 1417 1411 1407 1404 1401 1399 1399 1399 1398 1396 1395 1394 1393 1392 1391 1390 1390 1390 1391 1391 1392 1393 1394 1395 1396 1396 1395 1394 1393 1392 1390 1388
1465 1462 1458 1454 1450 1445 1441 1437 1431 1426 1419 1414 1409 1405 1400 1398 1395 1394 1394 1393 1391 1390 1389 1387 1386 1384 1383 1383 1383 1384 1384 1385 1387 1388 1389 1390 1391 1391 1390 1389 1388 1386 1385
1461 1458 1454 1451 1447 1443 1439 1435 1430 1425 1419 1415 1410 1405 1401 1396 1393 1390 1388 1387 1385 1384 1382 1381 1379 1378 1376 1376 1376 1377 1377 1378 1380 1382 1383 1385 1386 1386 1386 1385 1385 1384 1383
1458 1454 1451 1447 1443 1440 1436 1432 1427 1422 1417 1412 1407 1403 1399 1395 1392 1389 1386 1384 1383 1380 1378 1376 1374 1373 1371 1370 1370 1370 1371 1372 1373 1375 1377 1379 1380 1381 1381 1381 1381 1381 1381
1454 1451 1447 1444 1441 1437 1433 1428 1424 1419 1415 1410 1406 1401 1397 1393 1390 1386 1383 1380 1378 1375 1373 1371 1370 1368 1367 1365 1364 1364 1364 1365 1366 1368 1371 1373 1375 1376 1377 1377 1378 1379 1378
1450 1447 1444 1440 1437 1433 1429 1425 1421 1416 1412 1407 1403 1398 1394 1391 1387 1384 1380 1377 1374 1371 1368 1365 1364 1362 1361 1360 1359 1358 1358 1358 1359 1362 1364 1367 1369 1371 1372 1374 1375 1376 1376
1446 1443 1440 1436 1432 1428 1424 1421 1417 1413 1408 1404 1399 1395 1391 1388 1384 1380 1377 1373 1370 1367 1364 1361 1358 1356 1354 1354 1353 1352 1352 1353 1353 1355 1358 1361 1364 1366 1368 1370 1371 1373 1374
1442 1438 1435 1432 1428 1424 1420 1416 1413 1409 1404 1400 1396 1392 1388 1384 1380 1377 1372 1369 1365 1362 1359 1357 1354 1351 1349 1347 1346 1346 1346 1346 1346 1349 1353 1356 1359 1362 1364 1366 1368 1369 1371